User: anonymous   Login
Location: Pilipovskiye Korichintsy
(49.1833°N, 27.4667°E)
Time: 08:57:28
(UTC+00:00)
Language:

COBE Rocket - Orbit

View from above orbital plane
View from above orbital plane
View from above satellite
View from above satellite

Ground track
Ground track

The orbit data is extracted from the following two-line orbital elements,

1 20323U 89089B   20272.84805635 +.00000032 +00000-0 +17599-4 0  9996
2 20323 097.1053 042.2138 0070183 265.5830 093.7346 14.48359954607833
Epoch (UTC): 28 September 2020 20:21:12
Eccentricity: 0.0070183
inclination: 97.1053°
perigee height: 681 km
apogee height: 781 km
right ascension of ascending node: 42.2138°
argument of perigee: 265.5830°
revolutions per day: 14.48359954
mean anomaly at epoch: 93.7346°
orbit number at epoch: 60783

The dashed part of the orbit path shows where the satellite is in the earth's shadow,  

DLR